Home   Weather   Barrow   Past weeks

Flag for USA Past Weather in Barrow, Alaska, USA — Yesterday and Last 2 Weeks

Now
28 °F

Clear.


Feels Like: 19 °F
Forecast: 30 / 35 °F
Wind: 10 mph from South

Location: Post Rogers Memorial Airport

Current Time: Sep 25, 2016 at 6:09:57 AM

Latest Report: Sep 25, 2016 at 5:53 AM


Visibility: 10 mi

Pressure: 29.74 "Hg

Humidity: 85%

Dew Point: 24 °F

Location of BarrowLocation

Past Weather in Barrow — Graph

°F

Barrow Temperature Yesterday

Maximum temperature yesterday: 36 °F (at 6:53 PM)
Minimum temperature yesterday: 28 °F (at 6:53 AM)
Average temperature yesterday: 32 °F

High & Low Weather Summary for the Past Weeks

 TemperatureHumidityPressure
High45 °F (Sep 20, 2:53 PM)92% (Sep 20, 2:53 AM)30.12 "Hg (Sep 20, 2:53 AM)
Low28 °F (Sep 14, 6:53 AM)61% (Sep 12, 11:53 AM)29.07 "Hg (Sep 17, 8:00 AM)
Average34 °F78%29.58 "Hg
* Reported Sep 10 4:53 AM — Sep 25 4:53 AM, Barrow, Weather by CustomWeather, © 2016

Note: Actual official high and low records may vary slightly from our data, if they occured in-between our weather recording intervals... More about our weather records

Advertising

Barrow Weather History for the Previous 24 Hours

Scroll right to see more
 ConditionsComfort  
Time TempWeatherWind HumidityBarometerVisibility
4:53 AM
Sun, Sep 25
29 °FClear.12 mph82%29.74 "Hg10 mi
3:53 AM29 °FClear.10 mph82%29.73 "Hg10 mi
2:53 AM30 °FClear.12 mph82%29.73 "Hg10 mi
1:53 AM30 °FClear.10 mph82%29.73 "Hg10 mi
12:53 AM29 °FClear.9 mph82%29.72 "Hg10 mi
11:53 PM
Sat, Sep 24
29 °FClear.9 mph85%29.72 "Hg10 mi
10:53 PM31 °FClear.9 mph82%29.72 "Hg10 mi
9:53 PM31 °FClear.9 mph82%29.71 "Hg10 mi
8:53 PM32 °FClear.9 mph82%29.70 "Hg10 mi
7:53 PM33 °FSunny.7 mph82%29.70 "Hg10 mi
6:53 PM36 °FPassing clouds.10 mph79%29.69 "Hg10 mi
5:53 PM34 °FScattered clouds.9 mph82%29.68 "Hg10 mi
4:53 PM35 °FPartly sunny.14 mph82%29.67 "Hg10 mi
3:53 PM34 °FLow clouds.14 mph88%29.66 "Hg10 mi
2:53 PM33 °FLow clouds.14 mph88%29.65 "Hg9 mi
1:53 PM34 °FLow clouds.15 mph88%29.63 "Hg7 mi
12:53 PM33 °FLight rain. Fog.14 mph88%29.62 "Hg1 mi
11:53 AM32 °FFog.13 mph88%29.60 "Hg0 mi
11:02 AM32 °FIce fog.13 mph85%29.59 "Hg2 mi
10:53 AM32 °FLow clouds.10 mph85%29.59 "Hg10 mi
10:03 AM30 °FLow clouds.10 mph89%29.58 "Hg10 mi
9:53 AM30 °FScattered clouds.9 mph85%29.57 "Hg10 mi
8:53 AM29 °FPartly sunny.9 mph85%29.56 "Hg10 mi
7:53 AM28 °FPassing clouds.8 mph85%29.54 "Hg10 mi
6:53 AM28 °FPassing clouds.8 mph85%29.53 "Hg10 mi
6:00 AM34 °FFog.10 mph88%29.52 "Hg1 mi
Weather by CustomWeather, © 2016

See weather overviewHow to use our weather pages